Wind_Speed
27 26 26 25 25 24 24 24 25 25 25 26 26 26 26 25 25 24 24 24 24 25 25 25 26 26 27 28 28 27 26 26 26 27 28 30 32 33 35 37 34 28 25 22 17 13 8 6 7 9 12 14 16 18 20 21 24 27 31 35 40 40 41 42 41 39 37 33 30 26 25 25 26 27 29 29 31 34 35 37 34 31 30 28 31 30 26 22
29 28 27 26 26 25 25 24 24 25 25 25 26 26 27 27 27 26 26 26 26 26 26 26 27 27 27 28 28 27 26 26 26 26 28 29 31 32 34 36 33 28 25 22 17 13 9 5 5 7 10 12 15 17 19 21 23 26 31 36 40 42 43 42 40 39 36 32 29 27 26 26 27 28 30 31 34 36 36 39 36 31 30 29 30 26 23 23
31 30 29 28 27 27 26 26 26 25 25 25 26 26 27 27 28 28 28 27 27 27 27 27 28 28 28 28 28 27 27 26 26 27 28 28 29 31 32 34 33 28 24 22 18 13 10 5 3 5 8 11 14 17 18 21 24 27 32 37 41 43 43 40 39 38 36 32 28 27 26 27 30 29 32 34 35 39 40 41 38 33 31 29 29 26 23 23
33 33 32 31 30 29 28 28 27 27 27 27 27 27 27 28 29 29 29 29 29 29 29 29 29 29 29 29 28 28 27 27 27 27 27 27 28 30 31 32 32 29 24 22 18 14 11 7 3 2 6 9 12 15 18 21 24 27 32 38 42 43 41 39 39 38 35 31 29 28 27 29 30 29 34 37 36 39 40 40 39 36 33 28 28 26 22 22
33 34 34 34 33 33 31 30 29 29 29 29 28 28 28 29 29 30 30 30 30 30 30 30 30 29 30 30 29 29 28 28 29 28 28 28 27 28 29 30 31 29 25 22 19 15 11 8 5 1 3 7 10 14 17 20 24 28 33 37 40 41 40 39 38 37 34 31 30 28 27 29 30 32 38 39 37 38 39 39 38 37 34 27 26 25 22 21
33 34 35 35 35 35 34 34 32 31 31 30 30 30 30 30 30 31 31 31 31 31 31 31 30 31 31 31 30 30 30 29 29 29 29 28 28 27 28 29 29 29 26 22 20 16 12 9 7 4 1 4 8 12 16 20 24 28 32 35 38 39 38 37 37 35 33 33 32 28 29 32 33 36 39 40 39 39 40 40 37 35 31 25 23 24 20 16
34 35 35 36 36 36 37 36 35 34 33 32 31 31 31 31 31 32 32 32 32 32 32 32 32 32 32 32 32 32 31 31 30 30 30 30 29 28 27 28 28 28 27 23 19 17 14 10 8 6 3 3 6 11 15 19 23 26 30 33 36 37 36 35 35 34 34 35 33 31 32 34 34 35 38 42 42 40 42 41 38 33 28 22 18 21 20 11
34 35 36 36 37 37 38 38 38 37 36 34 33 33 32 32 32 32 32 33 33 32 33 33 32 32 32 32 33 33 33 32 31 30 30 30 30 29 27 27 26 26 27 24 20 17 15 12 8 6 4 3 5 9 14 18 21 25 29 32 34 34 33 34 34 34 35 36 34 32 33 34 35 36 40 44 42 42 43 42 40 34 27 22 20 22 23 15
35 36 36 37 38 38 39 39 39 39 38 36 35 35 34 34 33 33 32 33 33 33 33 33 32 32 32 32 33 33 33 32 32 31 30 30 30 30 28 26 25 25 25 25 22 18 15 13 10 6 4 4 5 8 12 16 20 23 26 29 31 32 33 34 34 35 35 36 35 33 33 37 38 38 41 44 43 43 44 42 42 39 29 26 27 23 24 22
35 36 37 38 38 39 40 41 41 41 39 38 37 37 36 36 35 34 33 33 33 33 32 32 32 32 32 32 33 33 32 32 32 32 31 30 30 30 30 27 25 24 24 24 23 20 16 13 11 8 5 3 4 7 11 14 18 21 24 27 29 32 33 34 34 35 36 38 37 34 36 39 37 37 41 44 44 43 44 42 43 44 35 31 31 24 27 27
33 35 36 38 39 40 41 42 42 42 42 40 39 38 38 38 37 37 35 34 33 33 32 32 32 32 32 32 32 32 32 32 32 32 32 31 30 30 30 29 27 24 23 22 22 21 18 14 12 10 6 3 3 6 9 13 16 20 22 25 27 30 31 32 33 35 37 38 37 35 36 39 37 37 43 45 45 44 44 43 43 44 41 37 33 28 32 29
31 33 35 37 38 39 41 41 42 43 44 43 41 41 40 40 39 39 38 36 35 33 33 33 33 33 33 33 33 32 32 32 31 31 32 31 31 31 30 30 29 26 23 21 21 21 19 16 12 10 8 5 2 4 8 11 14 17 20 23 26 28 30 32 33 35 37 38 37 36 36 39 39 41 46 48 48 47 45 46 44 44 44 41 36 35 39 34
30 32 33 35 36 38 40 41 42 43 44 45 44 44 43 43 42 41 40 38 37 35 34 33 33 33 34 34 33 33 32 32 31 31 31 31 31 31 31 30 29 28 26 22 20 20 19 17 14 10 8 6 4 2 5 9 12 15 18 21 24 27 30 32 34 37 38 39 38 38 39 40 41 43 47 47 47 49 47 45 44 44 45 45 41 41 45 42
29 30 32 33 35 36 38 39 41 42 43 44 45 46 46 45 45 44 42 40 39 38 36 35 34 34 34 34 34 33 32 32 32 31 31 31 31 31 30 30 30 29 28 25 21 19 18 17 15 12 8 6 5 3 3 6 10 14 17 20 22 25 28 30 33 36 38 39 41 40 40 40 41 45 48 47 47 50 47 44 46 47 46 46 45 43 48 47
28 29 31 33 34 35 36 37 39 40 41 43 44 46 47 47 46 46 44 42 41 40 38 36 35 34 35 34 33 33 33 32 32 32 31 31 30 30 30 30 30 29 29 27 24 21 18 16 15 13 10 7 4 3 3 4 8 11 15 18 21 24 27 30 33 36 38 40 42 41 41 41 43 46 48 48 48 51 49 48 50 50 46 46 47 46 49 49
27 29 30 31 33 34 35 36 37 38 39 41 43 44 46 47 47 46 45 43 42 41 39 38 36 35 34 34 34 34 33 32 32 32 32 32 31 30 29 29 29 28 28 27 27 24 20 17 15 14 12 9 5 2 2 4 6 9 12 16 20 24 26 30 32 34 37 40 41 42 43 44 44 47 49 48 47 50 51 51 52 52 49 49 50 49 51 51
27 28 29 30 31 33 34 35 36 36 37 39 40 42 44 46 46 46 45 44 44 42 41 39 37 35 34 35 36 35 33 32 32 32 32 32 32 31 30 28 27 27 27 26 26 26 23 20 16 14 13 12 9 5 1 2 5 8 10 13 17 20 23 26 29 32 35 38 40 43 45 45 47 49 50 48 47 48 49 50 51 51 51 52 52 51 52 53
26 28 29 29 30 31 33 34 35 36 36 37 38 40 42 44 45 46 45 45 45 44 43 41 38 36 36 37 37 37 35 33 32 32 32 32 32 32 31 29 28 26 26 25 25 25 24 23 19 15 13 12 11 9 5 3 4 7 9 12 14 17 20 23 27 30 32 36 40 43 44 46 48 50 51 49 48 48 48 48 48 49 51 52 53 52 51 52
27 28 29 29 30 31 31 32 34 35 36 37 38 38 40 42 44 45 44 44 44 45 44 43 41 38 37 38 39 39 38 36 34 32 31 31 31 32 31 31 29 27 25 24 24 23 23 23 22 19 15 13 12 12 9 7 5 6 8 10 13 16 19 22 25 27 29 34 39 42 44 46 47 49 52 52 51 51 49 49 49 49 51 51 52 53 49 50
28 29 30 30 30 31 31 32 32 33 35 36 37 38 38 40 41 43 43 43 43 44 44 44 43 41 39 40 40 40 40 39 37 35 32 30 30 30 31 31 30 28 26 24 23 22 22 22 21 20 19 16 13 12 12 11 9 8 9 10 12 14 16 18 19 22 28 33 37 42 44 46 47 48 52 53 54 54 53 53 53 52 52 52 52 54 51 50
30 30 31 31 31 31 32 32 32 33 34 35 37 37 37 38 39 41 42 42 42 43 45 45 45 43 41 41 41 41 41 41 40 38 35 32 30 29 29 29 29 28 27 25 23 21 20 20 20 20 20 19 16 13 12 12 12 12 13 13 14 15 14 14 15 17 23 30 36 40 42 44 46 47 51 53 54 55 54 55 56 55 56 54 53 54 53 51
32 32 32 32 32 32 32 32 33 33 34 35 36 37 37 37 39 40 41 42 42 43 45 46 45 45 43 42 41 41 41 41 40 40 38 35 32 30 27 27 27 27 27 26 24 22 20 19 18 19 19 19 18 16 14 12 13 14 15 16 17 18 17 16 15 15 19 26 32 35 37 41 45 48 51 53 57 58 56 54 55 57 58 57 57 57 56 53
33 33 34 34 34 34 34 33 34 34 35 35 36 37 37 38 39 40 41 42 42 43 45 45 46 45 45 43 42 41 40 40 40 39 39 36 34 32 29 27 25 25 25 26 25 24 22 20 18 17 17 18 18 18 17 15 14 14 16 18 20 21 21 20 18 17 19 24 27 29 32 37 42 46 50 54 59 61 57 56 57 57 59 59 58 57 57 56
35 34 34 35 35 36 36 35 35 36 36 36 36 37 38 38 39 40 41 41 42 42 44 44 45 45 45 45 43 42 41 40 40 39 39 37 35 33 32 30 28 25 24 24 25 25 24 22 20 17 16 16 17 18 17 17 16 16 16 18 20 22 24 25 23 21 22 24 26 28 29 32 38 43 47 54 58 59 58 59 60 60 61 62 61 59 58 58
38 37 36 36 36 37 37 37 36 37 38 38 37 37 38 38 39 39 40 41 41 41 43 43 44 44 46 46 44 43 43 41 40 40 39 38 35 34 34 34 32 29 26 24 24 25 24 23 21 19 17 16 16 16 17 17 17 17 17 18 20 21 23 26 28 27 26 27 27 28 28 30 37 39 42 50 53 53 59 62 62 61 62 64 63 61 58 56
40 39 38 37 37 38 38 38 38 38 39 39 38 38 39 39 39 39 40 41 41 41 42 42 43 44 46 46 45 45 44 43 42 41 40 39 36 35 35 35 35 33 29 26 25 25 24 23 22 21 19 17 16 16 16 17 17 17 18 19 20 21 23 25 29 30 30 29 28 28 29 31 36 37 40 49 48 46 56 62 62 62 62 63 63 61 60 58
41 40 40 39 39 39 39 39 39 38 39 40 40 39 40 40 40 40 40 41 41 41 42 42 42 44 45 45 45 45 44 44 44 43 40 39 38 36 36 35 35 34 32 29 27 26 25 24 23 22 21 19 18 16 16 17 17 18 18 20 21 22 24 25 27 31 31 31 31 31 30 29 33 37 42 49 48 45 50 54 58 62 61 61 62 61 60 59
42 41 41 41 40 40 40 40 40 39 40 41 41 41 40 41 41 41 41 42 42 42 43 43 43 44 44 45 45 44 43 43 44 44 42 40 38 37 36 35 35 34 34 33 30 28 27 26 24 23 21 21 19 18 18 18 18 18 19 20 22 23 24 26 27 29 31 31 32 34 33 30 32 39 44 48 49 48 47 47 55 61 61 63 66 65 60 55
44 43 42 42 41 42 42 42 41 41 41 41 41 42 41 42 42 42 42 42 42 43 43 43 45 46 45 46 46 45 43 42 43 44 44 42 40 38 37 35 34 34 34 35 34 32 29 27 26 25 23 21 21 20 19 19 19 20 20 20 22 23 25 26 27 28 29 30 32 33 33 31 32 37 44 48 51 51 49 50 56 60 64 67 68 68 65 57
46 44 43 43 42 43 44 44 44 43 43 43 43 43 42 43 43 42 43 43 43 44 44 44 45 47 47 47 47 46 45 44 43 43 44 44 42 40 38 37 35 33 33 35 35 34 33 29 27 26 25 23 23 21 21 21 20 21 21 21 23 24 25 27 26 27 28 28 29 29 29 28 27 32 38 42 48 54 54 55 58 60 65 69 66 68 73 69
48 46 45 44 44 45 46 46 46 45 45 45 44 44 44 44 45 44 44 44 44 44 44 45 46 48 49 48 47 46 46 45 44 43 43 44 43 41 39 38 37 35 33 33 34 34 33 31 28 26 26 26 25 24 23 22 22 22 23 23 23 24 26 27 27 27 28 27 27 27 26 24 23 27 31 33 41 51 53 56 62 63 65 68 67 69 74 76
51 49 48 47 46 47 47 48 48 47 46 46 46 46 46 46 47 46 45 44 45 45 44 45 47 49 50 50 49 47 46 46 45 44 44 44 43 41 40 38 37 36 34 32 33 33 32 30 28 27 27 27 27 27 26 25 23 24 24 24 24 25 26 27 27 27 28 28 29 29 26 22 20 23 26 26 34 43 46 53 63 65 66 69 69 69 71 73
53 52 51 51 51 50 49 49 49 48 48 47 47 47 48 48 48 48 47 45 45 46 45 46 48 50 52 52 51 49 48 47 45 46 47 46 45 43 40 38 37 37 36 34 33 33 32 29 28 28 28 29 29 29 29 28 27 26 26 26 26 27 28 29 28 28 29 29 31 31 28 24 21 21 22 21 26 34 40 48 58 63 66 69 69 69 67 68
56 55 54 54 54 53 52 51 50 49 49 49 49 49 49 50 49 48 49 47 46 46 47 47 49 51 53 53 52 51 50 49 47 47 48 48 47 46 42 39 38 37 37 36 33 32 31 30 30 29 29 30 30 31 31 31 30 29 28 28 28 28 28 30 30 29 29 30 31 31 30 26 22 21 21 19 20 26 33 42 50 56 63 68 69 69 68 67
58 58 57 56 56 56 55 53 52 51 50 50 50 50 50 50 49 49 49 49 48 47 48 49 50 53 54 54 53 52 51 50 49 48 49 50 49 47 45 42 39 38 37 37 35 34 32 31 32 31 31 31 31 32 33 32 32 31 30 29 29 29 29 30 31 31 30 30 30 30 30 28 23 20 21 20 21 22 27 36 43 47 55 63 68 68 70 71
60 60 60 59 58 58 56 55 54 53 51 51 50 51 51 50 50 49 49 50 50 48 49 51 52 54 56 55 54 53 52 52 50 49 50 51 50 49 47 44 41 40 38 36 35 35 34 32 33 33 32 32 33 33 33 33 32 32 32 31 30 30 29 30 31 32 31 30 30 30 30 30 25 22 22 20 22 24 25 31 39 44 49 57 63 65 68 71
61 61 61 61 60 60 58 57 56 54 52 51 51 51 52 50 51 50 48 49 51 51 51 52 53 55 56 55 54 54 54 54 52 50 51 52 51 51 49 45 44 42 40 38 35 34 34 34 34 35 34 33 34 33 33 33 33 33 33 33 33 32 30 30 31 32 32 30 30 31 31 32 28 23 22 21 21 24 26 30 35 40 45 50 57 63 66 69
62 62 62 62 62 60 59 58 56 55 53 52 51 52 52 51 50 50 49 50 52 52 52 54 55 56 57 56 55 55 56 55 53 52 53 52 51 52 51 48 47 45 42 41 38 34 34 34 34 35 36 35 34 33 32 33 34 34 34 34 34 34 32 31 31 32 32 31 31 32 32 32 30 24 22 22 22 24 27 30 31 34 40 45 50 56 62 67
64 63 62 63 63 60 59 58 57 55 54 53 53 52 52 51 51 51 50 51 54 54 54 56 57 57 58 58 58 58 57 56 55 54 54 53 52 53 51 48 49 49 46 44 42 37 35 35 35 34 35 36 36 35 33 33 34 35 34 34 34 34 33 31 31 31 32 32 33 34 33 32 31 28 24 23 24 25 27 29 29 32 37 41 45 50 55 61
66 65 62 63 63 61 60 59 58 57 55 54 54 54 53 52 52 53 52 52 56 57 56 57 58 59 59 59 60 60 59 57 56 57 55 53 53 53 50 46 48 51 50 47 44 41 38 38 37 35 34 35 36 37 36 34 35 35 35 35 35 35 34 33 32 32 33 34 34 35 36 34 33 31 26 25 27 28 28 29 30 33 37 39 42 45 49 53
67 66 63 63 64 62 61 60 59 59 57 56 57 56 55 54 54 56 56 55 57 59 59 59 60 61 61 61 62 62 60 58 58 57 55 54 54 52 48 44 47 51 52 50 47 44 42 40 39 36 35 35 35 38 38 36 36 36 35 36 36 36 36 35 35 34 34 34 34 35 36 36 36 34 28 27 28 29 30 30 32 34 36 37 38 40 42 45
69 68 66 65 65 63 62 62 61 61 59 58 59 59 58 57 57 59 59 58 59 60 61 62 62 63 63 63 63 63 61 60 60 58 56 57 56 51 47 45 47 51 52 51 50 48 44 42 40 38 36 35 35 36 39 39 39 37 35 34 35 36 36 36 36 35 34 34 34 35 36 37 36 35 31 29 29 29 29 29 31 34 36 36 37 36 38 40
71 71 69 68 67 65 64 64 63 62 61 61 62 62 61 60 60 61 62 62 61 62 63 63 64 65 65 65 64 64 64 63 61 60 60 59 55 50 48 48 48 51 52 51 51 50 48 44 41 39 37 37 36 36 38 40 41 38 34 32 33 34 35 36 37 35 34 33 34 35 37 37 37 36 33 30 29 30 30 29 30 33 36 37 38 38 38 39
72 72 71 70 69 68 66 66 66 64 64 64 64 64 64 63 63 63 64 65 64 64 65 65 66 67 67 66 66 65 66 64 63 63 62 59 55 52 52 50 49 51 52 51 51 51 50 47 43 41 40 39 38 37 38 40 42 40 35 32 32 34 35 36 37 36 34 33 33 35 36 37 37 37 34 30 29 32 32 29 27 29 32 34 37 39 38 37
72 73 72 70 70 70 69 68 68 67 67 67 67 67 67 66 66 66 66 67 67 67 67 68 68 69 69 69 67 66 67 66 65 65 63 60 56 55 56 53 49 51 53 52 52 52 49 47 45 44 43 42 41 40 39 41 43 41 37 34 32 33 35 37 38 37 35 33 33 34 36 38 37 38 36 33 31 33 31 28 26 26 27 30 33 34 34 33
73 74 74 71 70 72 73 72 71 71 71 70 70 70 70 69 69 69 69 69 70 70 70 70 71 71 71 71 69 68 69 69 68 66 63 61 58 57 58 55 51 52 55 54 53 50 46 44 44 45 46 45 45 44 43 43 43 40 37 36 34 33 35 37 38 38 36 34 34 34 36 38 38 39 38 36 34 33 31 28 26 25 24 26 26 28 30 28
76 76 76 75 74 74 76 77 76 75 74 74 73 73 73 72 72 72 72 72 72 73 72 72 73 73 72 72 72 71 71 71 70 66 64 63 61 59 59 57 55 55 56 56 53 47 43 42 43 44 45 47 48 47 46 45 44 41 38 37 35 33 35 37 38 39 37 36 35 34 35 37 38 39 39 37 35 32 30 28 25 23 22 21 21 22 25 27
81 81 80 79 80 79 78 79 79 79 78 78 77 76 76 75 75 76 76 75 75 76 75 74 75 75 75 75 74 73 73 72 70 67 67 65 62 61 60 60 58 57 57 56 52 46 42 41 44 45 45 47 49 50 49 47 46 43 40 38 36 35 36 38 39 39 39 38 36 35 35 37 38 38 39 39 36 32 31 30 27 24 21 20 19 18 20 22
85 84 83 83 83 83 83 82 81 81 82 81 80 79 79 79 79 79 79 79 78 79 79 78 77 78 78 78 77 76 75 73 71 71 70 67 63 63 63 62 61 60 58 55 50 47 44 42 45 46 45 46 50 51 51 50 49 46 42 39 37 36 38 40 39 39 40 39 38 36 36 37 38 39 40 39 36 32 30 31 28 24 21 21 20 18 18 19
88 87 87 86 85 85 85 85 85 84 84 84 83 83 83 82 82 82 83 83 82 82 82 81 80 81 81 81 80 79 78 77 76 73 70 66 65 65 64 64 63 62 59 55 50 48 47 44 46 47 46 48 51 52 52 53 51 49 46 40 36 36 40 41 40 39 40 40 39 36 36 37 38 39 40 40 38 34 30 30 28 24 20 18 18 17 18 18
91 91 91 89 88 87 87 88 88 88 87 87 86 86 86 86 85 85 85 86 86 86 86 85 84 84 83 83 83 82 82 81 77 72 69 68 66 65 65 65 65 64 62 59 54 52 51 51 52 52 50 52 55 54 54 54 51 49 47 42 36 36 39 40 40 39 39 41 40 37 36 37 38 39 38 38 39 35 31 29 27 25 21 17 16 15 16 18
95 95 95 93 91 91 91 91 92 91 90 90 89 89 89 89 89 89 88 88 89 90 88 88 88 87 85 85 86 85 84 82 78 74 72 69 66 65 65 65 65 66 66 64 59 55 54 54 56 57 54 55 57 56 54 52 49 49 47 41 36 37 38 39 40 39 38 40 41 39 37 36 38 39 38 37 37 35 33 30 26 23 22 19 16 14 14 15
Wind_Direction
4 2 0 358 357 356 356 355 353 351 349 348 348 347 348 349 350 352 353 354 354 354 353 352 351 350 349 348 347 344 342 341 341 341 343 344 345 346 346 347 349 350 349 345 340 333 321 290 258 235 224 220 215 211 206 201 199 199 198 197 196 197 201 203 202 201 203 202 199 197 194 189 180 170 170 169 170 177 178 176 177 179 184 193 190 179 179 192
11 9 5 1 359 358 357 356 354 353 351 350 349 348 348 348 348 350 351 352 353 354 354 353 354 355 355 354 353 350 347 347 346 346 346 347 348 350 350 350 352 354 353 349 347 343 336 314 265 235 223 215 212 209 205 199 197 198 198 197 196 198 200 201 201 201 202 198 194 194 190 183 173 166 169 166 169 177 179 180 179 178 185 190 185 177 177 185
17 16 12 8 5 2 360 358 356 355 354 353 353 351 351 350 350 351 351 352 352 354 354 354 356 358 359 359 357 355 353 352 351 350 349 349 351 353 353 353 354 357 358 354 351 350 349 340 294 237 221 211 208 206 202 199 196 196 197 196 196 199 200 199 200 201 200 195 191 191 187 179 169 165 170 168 171 179 180 182 179 177 183 184 182 178 175 177
20 20 18 15 12 10 6 3 0 358 357 356 356 355 354 353 353 353 354 354 354 355 354 355 357 359 1 1 1 359 358 358 356 354 352 352 354 355 356 356 357 359 2 359 355 355 357 356 344 248 218 208 204 201 199 197 195 196 197 196 197 198 198 197 198 199 197 192 188 189 184 175 168 166 171 173 178 181 180 183 179 178 184 185 183 182 181 182
22 21 20 18 17 16 14 11 7 3 1 359 359 357 356 356 356 356 356 356 357 357 356 357 357 359 2 3 3 3 3 3 1 358 356 356 356 358 358 359 359 1 5 4 0 359 3 5 5 7 211 202 199 196 194 192 192 195 197 198 197 197 197 196 197 197 192 188 187 188 180 171 170 172 172 174 181 181 180 184 180 179 186 190 185 185 188 188
23 22 21 20 19 19 18 17 14 10 7 4 2 0 359 358 358 358 357 357 359 359 358 358 358 360 2 3 4 5 6 5 4 3 1 1 360 360 0 1 2 3 7 9 6 4 6 11 14 28 99 180 189 190 187 189 192 195 197 197 197 196 196 195 197 194 188 187 187 185 179 173 174 175 172 173 178 180 182 185 180 178 183 182 176 176 183 187
24 23 22 20 19 19 19 19 18 16 13 10 7 4 3 1 1 360 358 358 359 360 359 359 359 0 2 3 4 6 7 6 6 6 5 4 4 2 2 2 4 5 8 11 12 9 8 12 20 32 54 137 171 180 183 188 191 194 196 196 196 195 194 194 197 193 187 187 187 186 181 173 173 175 172 174 178 180 183 183 177 175 176 179 186 188 196 204
25 24 23 21 20 20 20 20 19 18 17 15 13 10 8 6 4 2 360 359 359 359 359 359 360 2 2 2 3 5 7 7 6 7 7 7 7 6 4 3 4 7 9 11 15 16 13 13 20 32 49 98 150 169 178 185 188 192 194 195 195 193 193 195 196 193 189 188 188 187 179 172 174 177 174 175 179 180 181 181 175 170 171 190 213 210 214 229
27 26 24 23 21 20 20 20 19 19 19 18 16 15 13 11 9 6 2 0 360 359 359 358 360 2 4 4 3 5 6 6 7 8 8 9 10 9 7 5 5 7 10 11 14 19 19 17 18 28 49 87 133 157 172 180 187 190 193 193 192 191 193 195 195 193 190 191 190 186 179 176 178 176 173 176 180 179 179 179 176 172 170 193 207 206 221 234
28 27 25 24 23 22 21 20 20 19 19 18 18 17 16 14 13 10 6 3 0 360 358 357 358 1 4 5 5 5 4 4 6 8 9 10 12 12 11 8 6 7 10 11 13 18 23 23 21 24 41 87 133 157 170 177 183 188 191 191 191 193 194 194 194 193 192 193 191 187 182 179 177 176 175 177 179 179 179 179 180 178 175 188 195 202 224 228
26 26 25 23 23 22 21 21 20 20 19 18 18 17 17 16 14 13 10 6 3 0 358 357 358 359 2 4 6 6 4 4 5 7 10 11 13 14 13 12 9 7 9 11 12 14 20 26 27 27 32 60 133 162 173 179 184 189 191 190 191 195 196 194 194 195 195 195 193 189 185 181 179 179 177 177 179 180 181 182 185 183 179 181 189 203 213 210
22 23 23 22 22 21 21 20 20 20 19 18 17 17 16 15 15 14 12 9 6 3 359 357 357 358 360 2 4 4 4 4 5 6 8 11 13 14 15 14 12 10 9 10 11 12 14 21 29 33 34 40 90 164 179 187 190 192 194 193 194 196 197 196 195 196 197 197 195 191 190 186 183 182 178 178 182 182 183 187 189 187 182 184 193 199 199 195
17 18 18 19 19 20 20 19 19 19 18 18 17 17 16 15 14 14 14 12 10 7 3 359 357 357 359 360 1 2 3 4 4 5 7 9 12 14 15 15 14 13 12 10 9 10 11 14 21 31 38 42 56 136 183 192 195 196 198 198 198 199 199 199 197 198 198 198 197 194 195 189 184 185 182 181 184 184 185 190 192 190 189 194 198 194 193 193
12 14 14 15 15 16 17 18 18 17 16 16 16 16 16 15 14 14 14 13 11 9 6 3 359 357 358 359 359 359 1 3 4 5 6 7 9 11 13 14 15 15 14 12 9 7 7 8 11 18 30 45 61 84 162 191 198 200 202 202 202 202 203 202 201 201 200 200 200 197 197 190 186 191 190 188 188 187 190 193 194 193 196 201 201 196 196 197
7 9 10 11 12 13 14 15 16 16 15 14 14 14 15 14 14 14 13 12 11 10 8 6 2 1 0 359 357 357 0 2 3 5 6 6 7 8 10 13 14 15 15 14 12 8 4 3 2 4 12 27 56 92 139 180 196 202 205 205 206 205 206 206 205 204 202 204 203 200 199 192 191 197 195 193 193 193 196 198 196 197 201 204 203 202 203 203
358 1 3 5 7 9 10 12 13 14 14 13 12 12 13 13 13 13 13 12 11 10 9 7 5 3 1 359 357 357 358 359 1 4 5 6 6 5 7 9 11 13 15 15 14 11 7 1 357 354 356 359 10 49 145 178 191 199 204 209 210 210 210 210 209 208 206 207 206 204 203 195 193 199 197 196 198 198 199 199 198 200 204 204 204 205 206 208
350 352 355 358 0 3 5 7 9 11 12 12 11 10 11 12 12 12 11 11 10 9 9 8 6 4 1 1 360 357 355 354 356 359 2 5 5 5 6 6 7 9 12 13 13 13 10 5 358 350 345 343 343 348 331 205 202 203 204 211 215 215 216 216 215 214 212 211 210 209 209 201 194 198 200 200 204 204 203 202 201 201 204 206 204 204 206 212
342 345 348 351 354 357 359 1 3 6 8 9 9 9 9 10 11 11 10 9 9 8 8 7 7 4 2 2 1 359 357 353 351 353 357 1 2 3 5 5 5 5 6 9 11 11 11 9 5 356 343 333 329 327 319 281 234 221 213 214 218 218 217 217 218 218 216 216 216 213 213 210 201 197 201 203 203 206 206 205 204 203 205 208 206 206 210 217
335 338 341 344 347 351 353 355 356 359 2 4 6 7 7 7 9 9 9 8 7 7 6 6 6 5 3 2 1 1 360 357 354 352 353 355 358 359 1 4 5 3 1 3 7 8 8 9 9 4 354 337 322 316 311 301 278 257 242 230 227 225 222 220 218 216 218 220 222 219 217 217 209 199 203 206 204 205 207 206 206 206 204 205 205 207 213 220
329 332 335 338 341 345 348 350 351 352 354 357 1 3 4 5 6 7 8 7 6 5 5 5 5 4 3 2 1 359 358 358 358 356 354 351 352 354 356 0 2 2 360 358 359 2 3 5 6 6 4 353 334 315 305 300 294 282 271 259 248 244 240 234 224 215 218 221 223 224 221 221 218 206 204 209 209 207 208 207 206 204 202 202 204 208 214 221
324 326 328 331 334 338 342 344 347 348 348 350 354 358 0 2 4 4 5 5 5 4 4 4 4 3 2 1 -0 358 355 357 357 357 356 351 348 348 351 355 357 358 359 357 355 355 356 359 1 2 3 0 353 336 313 299 293 288 283 279 273 266 259 253 237 219 221 225 225 226 225 225 224 217 209 208 211 212 211 211 207 205 205 205 208 212 216 224
320 321 323 325 328 331 336 339 341 343 344 345 347 351 354 357 0 2 2 3 4 4 4 4 3 2 1 360 359 356 354 354 354 354 355 353 350 347 346 348 350 353 355 354 354 352 349 349 354 358 358 356 357 352 339 320 302 292 288 285 283 279 274 264 250 231 227 233 235 233 230 229 228 226 219 211 210 213 214 216 213 211 211 212 215 217 219 226
316 318 319 321 323 326 330 333 335 338 340 341 342 344 347 350 354 358 360 0 1 1 2 2 2 1 1 360 358 355 353 351 351 351 352 352 351 349 347 345 344 345 348 350 351 351 348 346 346 349 350 350 350 350 348 342 328 312 301 292 285 282 280 273 263 250 241 242 244 242 236 235 233 230 228 221 214 212 214 220 220 218 218 219 221 221 223 228
313 314 316 318 320 322 325 328 330 333 335 337 338 340 342 344 348 353 356 358 358 359 -0 0 360 -0 0 360 358 355 353 351 349 349 349 349 349 349 348 346 343 339 340 343 346 347 347 345 343 339 339 341 342 342 341 341 337 331 321 306 294 288 284 280 273 264 257 252 251 248 242 240 240 236 234 231 222 213 213 221 224 223 223 224 225 226 227 231
310 311 312 315 317 319 321 324 327 328 330 333 335 336 338 340 343 348 351 354 355 355 357 358 357 357 358 359 358 356 354 352 349 347 346 347 346 345 345 346 346 343 338 337 337 339 341 342 341 336 331 330 332 333 332 331 330 330 326 315 307 300 291 286 280 273 267 261 256 253 248 244 244 242 240 241 232 218 216 219 221 224 225 225 227 228 228 229
307 308 310 311 313 316 318 320 323 325 326 328 331 333 334 336 339 343 346 349 351 351 353 355 355 354 355 356 357 356 355 352 350 347 345 344 343 341 342 343 345 346 343 337 332 331 333 336 337 336 331 324 322 321 320 321 322 323 320 316 314 309 301 295 288 282 276 271 266 261 254 247 247 246 242 245 242 229 223 221 219 222 226 227 227 226 227 228
304 305 307 308 310 312 314 316 319 321 322 324 327 329 330 332 335 338 341 344 346 347 349 351 351 352 352 353 354 354 354 352 350 349 345 343 342 339 339 340 342 345 344 342 336 330 328 329 331 333 331 325 318 314 310 311 315 317 317 316 314 313 310 306 298 291 285 281 278 272 263 252 249 247 242 244 245 237 230 224 219 220 224 230 229 225 227 230
302 302 303 305 307 310 311 312 314 317 318 320 322 324 326 328 330 334 337 339 341 343 344 346 347 348 349 349 351 352 352 351 350 349 346 343 341 338 337 336 337 340 342 342 341 334 328 325 325 327 329 326 320 314 309 307 309 311 313 316 315 315 314 312 307 299 292 289 285 281 276 267 256 249 244 243 244 240 235 228 222 219 219 226 230 226 225 229
300 301 302 302 304 307 308 309 310 313 314 316 318 320 322 324 326 330 332 335 337 338 340 341 342 345 345 345 347 348 349 349 348 348 346 344 341 338 337 335 335 337 338 339 342 339 331 324 322 323 324 326 323 317 311 308 308 308 311 314 315 315 314 313 310 303 297 291 287 284 282 275 263 252 245 242 241 238 235 231 227 223 218 221 227 226 222 225
298 299 300 300 302 304 305 306 307 309 311 313 315 316 318 320 323 327 329 331 333 334 336 337 338 341 342 342 343 344 345 346 347 347 346 344 341 338 336 335 335 336 335 335 339 341 336 329 322 321 322 323 324 321 316 312 311 310 311 313 314 315 315 313 311 307 302 295 292 293 292 284 271 258 248 242 239 237 233 229 228 226 222 222 225 225 223 224
295 296 297 298 299 301 303 304 305 306 308 310 311 313 315 317 320 323 326 327 329 330 333 334 335 337 338 339 339 340 341 343 344 345 345 344 342 337 335 333 332 333 333 333 335 338 339 335 326 320 320 321 322 322 320 316 314 313 313 314 313 314 316 316 317 314 309 306 308 311 309 297 280 265 255 244 238 238 235 229 227 227 225 223 224 223 223 225
292 294 295 296 297 298 300 301 302 304 305 307 308 310 312 313 317 321 323 324 325 327 329 330 332 334 334 336 336 336 338 339 340 341 342 343 342 338 333 330 328 329 330 331 332 333 337 340 334 325 320 319 321 322 321 321 319 316 314 314 314 315 318 320 323 322 319 320 322 323 321 309 289 274 266 252 241 239 237 229 227 228 227 225 223 223 223 225
290 292 293 294 295 296 298 298 300 301 303 304 305 307 308 310 315 318 319 321 322 323 326 327 329 331 331 333 333 333 335 336 337 337 339 340 341 340 335 329 326 326 327 328 329 329 332 339 339 333 325 320 320 320 321 322 321 318 317 317 318 320 322 323 326 327 327 328 327 329 329 317 300 285 273 259 245 240 236 231 227 227 228 227 226 224 224 227
288 289 291 292 293 295 296 296 298 299 300 302 303 305 305 308 313 315 316 318 319 320 323 325 326 328 329 330 330 330 332 333 334 334 336 337 338 340 338 332 327 325 324 325 327 327 330 336 337 337 334 328 322 320 320 322 322 320 319 319 320 323 324 324 328 330 330 330 329 333 332 321 308 292 277 264 250 241 237 235 231 227 227 228 227 225 225 228
287 288 289 290 292 293 294 295 296 296 298 300 301 302 303 306 311 312 313 314 315 317 320 322 324 325 326 327 327 328 329 330 331 332 333 335 336 337 337 334 329 326 323 323 324 326 329 333 334 335 338 335 328 322 320 321 322 321 321 320 321 323 324 325 327 330 331 331 331 333 332 324 312 294 280 266 256 249 241 239 237 232 229 228 228 227 227 230
285 286 287 288 289 291 292 293 294 295 296 297 299 300 302 305 308 310 312 311 311 315 317 319 322 323 323 324 324 326 327 328 329 329 331 332 333 334 335 334 330 328 324 322 323 324 327 330 331 332 334 335 334 328 321 319 321 322 322 322 323 323 324 324 326 328 330 331 331 333 332 328 320 300 283 265 253 251 246 241 238 234 230 229 229 228 229 231
283 284 285 286 288 289 290 291 292 293 294 296 297 298 300 303 305 307 309 308 309 313 315 317 320 321 320 321 321 322 324 325 326 327 328 330 330 331 332 331 329 329 326 323 323 323 325 327 328 328 330 333 335 332 325 319 319 321 322 323 324 323 323 324 325 326 328 330 333 334 332 332 327 308 288 274 257 249 248 245 241 237 232 230 231 231 231 231
281 282 284 285 286 287 288 289 289 290 292 294 295 296 298 301 303 304 306 306 307 310 313 314 317 318 318 318 319 320 321 323 324 324 326 328 328 328 329 328 327 329 328 325 324 323 322 323 324 325 327 329 332 332 329 322 318 319 321 322 323 322 323 323 323 324 326 330 333 333 333 333 331 317 299 288 273 260 253 248 245 242 236 231 232 234 235 234
280 281 282 283 284 285 286 287 287 289 290 292 293 295 297 299 300 301 303 305 305 307 310 312 314 316 316 316 317 318 319 320 321 321 323 325 325 326 328 326 324 326 327 326 325 322 319 318 320 322 323 326 328 328 328 325 320 317 317 320 321 321 322 322 322 323 326 331 333 333 333 334 333 323 308 294 282 272 264 256 249 245 242 237 234 234 236 236
280 280 281 282 282 284 284 285 286 287 289 290 291 293 295 297 298 298 300 303 303 305 307 309 311 313 314 314 314 316 318 318 318 319 321 322 322 324 326 324 320 320 323 323 324 322 317 315 317 319 319 321 324 323 323 324 322 318 316 317 319 320 322 323 323 324 327 330 333 333 332 333 334 326 309 294 287 281 274 268 261 254 250 246 242 240 238 236
278 279 279 279 280 282 282 283 284 285 287 289 289 291 292 295 295 296 299 300 301 303 305 307 309 310 311 312 313 314 316 316 316 317 317 318 320 322 323 320 315 315 317 319 320 320 316 312 312 314 315 317 320 320 320 321 321 319 317 316 319 321 322 323 323 324 326 328 330 332 330 330 333 329 314 296 290 287 283 277 271 266 262 257 253 249 245 241
275 276 277 277 278 280 281 282 283 284 286 287 287 289 290 292 293 295 297 298 300 302 303 305 307 308 309 311 312 313 313 314 314 314 314 316 318 318 317 315 311 311 313 314 316 317 315 311 309 311 313 314 316 318 318 318 319 320 318 316 317 320 321 322 322 322 323 325 328 329 328 329 331 331 320 304 296 295 292 283 276 274 272 267 262 255 248 244
273 274 275 276 277 278 280 281 282 283 284 284 285 287 288 290 292 293 295 296 298 300 302 303 304 305 307 308 310 310 311 312 312 312 312 314 315 313 313 312 309 308 311 310 311 313 312 310 308 309 311 311 312 315 316 314 315 318 317 316 315 317 318 320 321 321 321 322 325 327 326 327 330 331 325 312 302 298 295 287 278 273 271 269 266 260 251 243
272 273 274 276 277 278 279 280 280 281 282 283 284 286 287 288 290 291 293 294 296 298 299 301 302 303 304 306 308 308 309 311 311 310 311 312 311 308 308 310 308 307 308 308 307 309 309 308 307 307 310 311 311 312 311 309 312 315 315 315 315 315 316 318 320 321 320 320 322 325 325 325 328 330 327 319 308 302 300 295 285 278 272 266 263 260 256 248
272 273 274 275 277 278 278 278 279 281 281 282 283 284 285 286 288 289 291 293 294 296 297 299 300 301 302 304 305 306 308 309 309 310 309 309 307 305 305 309 307 306 306 305 304 306 306 306 305 306 308 309 310 310 307 307 310 313 313 314 315 315 316 317 318 320 320 319 320 323 324 325 327 329 329 326 317 309 305 301 295 289 281 272 266 261 258 253
270 272 272 273 275 276 277 277 278 279 280 281 282 282 283 284 286 287 289 291 293 294 295 297 298 299 300 302 303 305 306 307 308 309 307 306 304 302 304 307 305 304 304 303 303 304 302 300 301 302 304 305 307 308 308 308 310 311 311 312 314 316 316 316 316 318 320 319 319 322 324 324 326 329 330 328 321 312 309 308 305 298 289 282 275 263 254 252
268 269 271 272 272 273 276 277 278 278 279 280 280 281 282 283 284 286 287 288 290 292 294 295 296 297 298 300 301 304 305 306 307 307 304 303 302 300 302 303 302 302 302 302 302 301 298 298 299 299 301 302 303 305 306 308 310 310 310 310 312 315 316 315 315 317 319 319 317 319 322 323 325 328 330 329 323 316 314 317 314 305 299 293 281 267 257 248
269 269 270 271 272 272 273 275 277 279 279 279 279 280 281 282 284 285 286 287 289 291 292 294 295 296 297 298 300 302 304 305 306 304 302 301 299 298 298 299 300 301 301 302 302 299 298 300 299 298 299 300 300 301 303 306 308 309 308 308 309 313 314 314 314 315 318 318 317 318 320 322 324 327 328 329 327 321 318 319 315 309 308 304 289 273 266 251
268 270 270 271 272 273 274 274 276 277 278 279 279 280 281 282 283 284 286 287 288 290 291 292 293 294 295 297 299 301 303 303 303 302 302 300 296 295 296 297 298 299 301 302 301 298 299 299 297 296 298 297 297 297 300 303 305 307 306 304 306 310 312 312 312 313 315 316 316 317 318 320 323 326 327 329 329 324 317 314 313 311 311 310 299 280 269 259
268 269 270 271 272 273 274 275 275 276 277 278 279 280 281 282 283 284 285 286 288 289 289 291 292 293 294 296 298 300 300 301 302 302 300 297 294 293 293 294 296 297 299 300 297 294 294 293 290 290 292 292 291 292 295 298 301 304 302 300 303 308 308 309 310 311 313 315 315 316 316 319 322 324 326 328 330 326 318 313 311 312 310 306 301 284 269 265
269 269 269 270 271 272 273 274 275 275 276 277 278 279 280 281 282 283 284 285 286 287 288 289 290 291 293 295 296 298 299 300 301 300 297 294 293 291 291 292 293 295 297 298 295 290 287 285 283 284 285 286 286 288 291 294 297 299 297 296 300 304 304 306 308 309 311 313 314 315 315 316 319 321 323 327 328 326 322 316 310 310 312 307 301 286 269 265
268 269 269 270 270 271 272 273 274 275 276 277 277 278 279 280 281 282 283 284 285 286 287 288 289 290 292 293 295 296 297 298 298 297 295 293 291 289 288 289 290 291 293 296 295 290 285 283 282 282 282 282 285 286 287 291 294 294 292 294 297 298 300 303 305 307 309 311 313 313 313 314 317 319 321 325 326 325 324 319 312 310 314 311 305 295 277 267
Height
10750 10748 10745 10743 10741 10739 10737 10735 10733 10731 10729 10727 10724 10722 10720 10717 10715 10712 10710 10707 10705 10702 10700 10697 10695 10692 10689 10686 10683 10680 10677 10674 10672 10669 10666 10664 10661 10657 10654 10650 10645 10641 10639 10636 10634 10633 10632 10631 10632 10632 10633 10634 10636 10638 10640 10643 10646 10649 10653 10656 10660 10664 10668 10672 10677 10681 10685 10690 10696 10701 10706 10710 10714 10718 10721 10723 10725 10725 10724 10726 10730 10733 10735 10737 10741 10748 10756 10760
10750 10748 10746 10744 10742 10740 10738 10736 10734 10732 10730 10727 10725 10722 10720 10717 10715 10712 10710 10707 10705 10702 10699 10697 10694 10691 10688 10685 10682 10679 10676 10673 10671 10668 10666 10663 10660 10657 10654 10650 10645 10642 10639 10637 10635 10634 10632 10632 10632 10632 10633 10634 10636 10637 10640 10642 10645 10648 10651 10654 10658 10661 10666 10671 10676 10680 10685 10690 10695 10700 10704 10708 10712 10716 10720 10722 10723 10724 10724 10725 10728 10731 10733 10737 10743 10750 10756 10759
10751 10749 10747 10744 10742 10740 10738 10736 10734 10732 10729 10727 10725 10722 10720 10717 10715 10712 10709 10707 10704 10702 10699 10696 10693 10690 10688 10684 10681 10679 10676 10673 10670 10667 10665 10663 10660 10657 10654 10650 10646 10643 10640 10638 10636 10635 10633 10632 10632 10632 10633 10634 10635 10637 10639 10642 10644 10647 10649 10652 10656 10660 10665 10671 10675 10679 10684 10689 10694 10698 10703 10707 10711 10715 10719 10721 10721 10721 10721 10721 10725 10729 10733 10738 10743 10749 10755 10759
10752 10750 10747 10745 10743 10741 10738 10736 10734 10731 10729 10727 10724 10722 10719 10717 10714 10712 10709 10706 10704 10701 10699 10696 10693 10690 10687 10684 10681 10678 10676 10673 10670 10667 10665 10662 10660 10657 10654 10651 10648 10644 10641 10639 10638 10636 10635 10633 10633 10632 10633 10634 10635 10637 10639 10641 10643 10646 10648 10651 10654 10659 10665 10669 10673 10678 10683 10689 10693 10696 10701 10705 10710 10714 10717 10720 10720 10719 10718 10719 10723 10729 10733 10737 10742 10747 10753 10757
10753 10751 10748 10746 10744 10741 10739 10736 10733 10731 10728 10726 10723 10721 10718 10716 10714 10711 10708 10706 10703 10701 10698 10695 10693 10690 10687 10684 10681 10678 10676 10673 10670 10667 10665 10662 10660 10657 10655 10652 10649 10646 10643 10641 10639 10638 10636 10635 10634 10633 10633 10634 10635 10636 10638 10641 10643 10645 10647 10650 10654 10659 10664 10669 10673 10677 10683 10688 10692 10696 10700 10704 10708 10710 10713 10716 10718 10718 10718 10719 10724 10730 10733 10736 10741 10745 10750 10755
10754 10751 10749 10747 10744 10742 10739 10737 10734 10731 10728 10726 10723 10720 10718 10715 10713 10710 10708 10705 10703 10700 10698 10695 10692 10690 10687 10684 10681 10678 10676 10673 10670 10667 10664 10662 10660 10657 10655 10653 10650 10647 10644 10642 10641 10639 10638 10636 10635 10634 10634 10634 10635 10637 10638 10640 10642 10644 10647 10650 10655 10660 10664 10669 10673 10677 10682 10686 10690 10694 10698 10701 10704 10706 10710 10714 10715 10717 10717 10719 10725 10731 10735 10738 10740 10743 10748 10753
10754 10752 10750 10747 10745 10743 10740 10737 10734 10731 10728 10726 10723 10720 10717 10715 10712 10710 10707 10705 10702 10700 10697 10695 10692 10689 10687 10684 10681 10679 10676 10673 10670 10668 10665 10662 10660 10657 10655 10654 10652 10649 10647 10644 10642 10641 10640 10638 10637 10636 10635 10635 10636 10637 10638 10640 10642 10645 10648 10652 10655 10660 10665 10670 10673 10677 10681 10684 10688 10692 10695 10700 10704 10707 10710 10712 10713 10714 10716 10719 10726 10734 10738 10740 10739 10741 10745 10749
10755 10753 10750 10748 10746 10743 10741 10738 10735 10732 10729 10726 10723 10720 10717 10715 10712 10710 10707 10705 10702 10700 10697 10695 10692 10689 10687 10684 10681 10679 10676 10673 10671 10668 10665 10663 10660 10658 10656 10654 10653 10651 10649 10646 10644 10643 10641 10640 10639 10638 10637 10637 10637 10638 10639 10641 10643 10645 10648 10652 10656 10661 10665 10669 10672 10676 10680 10683 10687 10690 10694 10699 10703 10705 10709 10711 10712 10712 10714 10718 10726 10734 10740 10741 10739 10741 10743 10746
10755 10753 10751 10748 10746 10744 10741 10738 10736 10733 10729 10726 10724 10721 10718 10715 10713 10710 10708 10705 10702 10700 10698 10695 10693 10690 10687 10684 10682 10679 10676 10674 10671 10668 10666 10663 10661 10659 10657 10655 10654 10652 10650 10648 10646 10644 10643 10642 10641 10640 10639 10639 10639 10640 10640 10642 10644 10646 10649 10652 10657 10661 10664 10667 10671 10675 10679 10682 10686 10689 10693 10697 10699 10703 10708 10711 10712 10713 10715 10718 10723 10729 10737 10740 10738 10740 10742 10743
10756 10754 10751 10749 10746 10744 10741 10739 10736 10733 10730 10727 10724 10721 10718 10716 10713 10710 10708 10705 10702 10700 10698 10696 10693 10690 10688 10685 10682 10679 10677 10675 10672 10669 10666 10664 10662 10660 10658 10656 10654 10653 10652 10650 10648 10646 10644 10643 10643 10642 10642 10641 10641 10641 10642 10643 10645 10647 10650 10653 10657 10660 10663 10667 10670 10674 10677 10680 10683 10687 10690 10694 10698 10703 10707 10710 10712 10713 10716 10718 10720 10723 10731 10736 10736 10738 10738 10739
10756 10754 10752 10749 10747 10744 10742 10739 10736 10734 10731 10728 10725 10722 10719 10716 10713 10711 10708 10705 10703 10700 10698 10696 10693 10691 10688 10686 10683 10680 10678 10675 10672 10670 10667 10665 10663 10661 10659 10657 10655 10654 10652 10651 10650 10648 10646 10645 10644 10644 10644 10643 10643 10644 10644 10645 10647 10649 10651 10655 10658 10660 10664 10667 10669 10672 10675 10678 10682 10686 10689 10693 10698 10701 10704 10708 10711 10712 10715 10717 10719 10721 10725 10729 10732 10734 10736 10738
10757 10754 10752 10750 10747 10745 10742 10739 10737 10734 10731 10728 10726 10723 10720 10717 10714 10711 10708 10706 10703 10700 10698 10696 10693 10691 10688 10686 10683 10681 10678 10676 10673 10670 10668 10665 10663 10661 10660 10658 10656 10654 10653 10652 10650 10649 10648 10647 10646 10645 10645 10645 10645 10646 10646 10647 10648 10650 10653 10655 10657 10660 10663 10666 10668 10671 10674 10677 10682 10686 10689 10691 10696 10699 10701 10704 10707 10709 10711 10713 10716 10719 10722 10725 10726 10728 10732 10734
10757 10755 10753 10750 10748 10745 10743 10740 10737 10734 10731 10729 10726 10723 10721 10718 10715 10712 10709 10706 10703 10701 10698 10696 10693 10691 10688 10686 10683 10681 10679 10676 10674 10671 10669 10666 10664 10662 10660 10659 10657 10655 10653 10652 10651 10650 10650 10649 10648 10647 10646 10647 10647 10647 10648 10649 10650 10651 10653 10655 10657 10660 10662 10664 10666 10668 10671 10675 10679 10682 10685 10689 10694 10697 10698 10701 10704 10705 10707 10710 10713 10717 10720 10721 10722 10724 10727 10728
10757 10755 10753 10751 10748 10746 10743 10740 10737 10734 10732 10729 10726 10724 10721 10718 10715 10712 10710 10707 10704 10701 10699 10696 10694 10691 10689 10686 10684 10682 10680 10677 10675 10672 10670 10667 10665 10663 10661 10659 10657 10656 10654 10653 10652 10651 10651 10650 10649 10649 10648 10648 10648 10648 10649 10650 10650 10651 10653 10655 10657 10659 10661 10663 10665 10667 10670 10672 10675 10679 10682 10688 10693 10694 10695 10699 10701 10703 10705 10708 10709 10712 10715 10717 10719 10721 10723 10724
10757 10755 10753 10751 10749 10746 10744 10741 10738 10735 10732 10729 10726 10724 10721 10719 10716 10713 10710 10708 10705 10702 10700 10697 10695 10692 10689 10687 10686 10683 10680 10678 10676 10673 10671 10668 10666 10664 10662 10660 10658 10657 10655 10654 10652 10652 10651 10651 10651 10650 10650 10649 10649 10649 10649 10650 10651 10652 10653 10654 10655 10657 10659 10661 10663 10665 10668 10669 10672 10676 10680 10684 10689 10691 10692 10696 10699 10701 10702 10703 10705 10708 10711 10712 10715 10718 10719 10720
10756 10754 10753 10751 10749 10746 10744 10741 10739 10736 10733 10730 10727 10724 10722 10719 10717 10714 10711 10709 10706 10703 10701 10698 10695 10693 10691 10689 10687 10684 10681 10679 10677 10674 10672 10669 10667 10665 10663 10661 10659 10658 10656 10655 10653 10652 10652 10651 10651 10651 10651 10651 10650 10650 10650 10650 10651 10652 10653 10653 10654 10656 10658 10659 10662 10664 10666 10668 10671 10674 10675 10679 10683 10686 10689 10691 10694 10696 10698 10700 10702 10705 10707 10709 10712 10714 10714 10715
10755 10754 10752 10750 10748 10746 10744 10742 10739 10736 10733 10731 10728 10725 10722 10720 10717 10715 10712 10710 10707 10705 10702 10700 10697 10695 10692 10690 10687 10684 10682 10680 10677 10675 10672 10670 10668 10666 10664 10662 10660 10658 10657 10656 10654 10653 10653 10652 10651 10651 10652 10651 10651 10651 10651 10651 10651 10651 10652 10653 10653 10655 10657 10659 10662 10663 10665 10667 10669 10670 10672 10675 10679 10682 10685 10687 10689 10692 10695 10697 10699 10702 10703 10705 10708 10710 10710 10710
10754 10753 10751 10749 10748 10746 10744 10742 10739 10736 10734 10731 10728 10726 10723 10721 10718 10716 10713 10711 10708 10705 10703 10700 10698 10696 10693 10690 10687 10685 10682 10680 10678 10675 10673 10670 10669 10666 10665 10663 10661 10659 10658 10656 10655 10654 10653 10653 10652 10651 10651 10651 10651 10652 10652 10652 10652 10651 10652 10652 10653 10654 10656 10657 10659 10661 10664 10665 10666 10667 10670 10672 10675 10680 10682 10683 10686 10688 10691 10693 10695 10698 10699 10701 10704 10705 10705 10706
10754 10752 10750 10749 10747 10745 10743 10741 10739 10736 10734 10731 10729 10726 10723 10721 10719 10716 10714 10712 10709 10706 10703 10701 10699 10696 10693 10691 10688 10685 10682 10680 10678 10675 10673 10671 10669 10667 10665 10663 10661 10660 10658 10657 10656 10655 10654 10653 10652 10651 10651 10651 10651 10651 10652 10652 10652 10651 10652 10652 10652 10653 10654 10655 10657 10659 10662 10663 10663 10664 10667 10668 10672 10677 10678 10678 10681 10683 10686 10688 10690 10692 10694 10698 10700 10699 10700 10702
10753 10751 10749 10748 10746 10744 10742 10741 10739 10736 10733 10731 10729 10726 10724 10721 10719 10717 10715 10713 10710 10708 10705 10703 10699 10696 10693 10690 10688 10685 10682 10680 10677 10675 10673 10671 10669 10667 10665 10663 10662 10661 10659 10657 10656 10655 10654 10653 10652 10651 10651 10650 10650 10650 10650 10651 10651 10651 10651 10652 10652 10652 10653 10655 10657 10658 10659 10660 10660 10661 10663 10665 10668 10673 10675 10675 10677 10679 10682 10682 10684 10687 10690 10694 10695 10695 10697 10698
10752 10750 10748 10746 10745 10743 10741 10740 10738 10736 10733 10731 10728 10727 10724 10722 10720 10717 10715 10713 10711 10709 10706 10702 10699 10696 10693 10690 10688 10685 10682 10680 10677 10675 10673 10672 10670 10668 10666 10664 10663 10661 10659 10658 10657 10655 10654 10653 10652 10651 10650 10650 10649 10649 10649 10649 10649 10650 10650 10650 10651 10651 10653 10654 10656 10657 10657 10657 10657 10658 10660 10662 10664 10668 10670 10673 10675 10677 10679 10679 10680 10683 10685 10689 10691 10692 10693 10693
10750 10748 10746 10744 10743 10741 10740 10738 10736 10735 10733 10730 10728 10726 10724 10722 10720 10718 10715 10713 10710 10708 10705 10702 10699 10696 10693 10690 10688 10685 10682 10679 10677 10675 10674 10672 10670 10668 10666 10665 10663 10661 10660 10658 10657 10656 10654 10653 10651 10650 10650 10649 10648 10648 10647 10647 10647 10647 10648 10648 10648 10649 10651 10652 10653 10656 10656 10655 10655 10656 10659 10660 10661 10662 10664 10668 10670 10670 10673 10675 10677 10678 10680 10683 10685 10687 10689 10689
10747 10746 10744 10742 10740 10739 10738 10737 10735 10733 10732 10730 10727 10725 10723 10721 10719 10717 10714 10711 10709 10707 10704 10701 10699 10696 10693 10690 10688 10685 10683 10680 10678 10676 10674 10672 10670 10668 10666 10665 10664 10662 10660 10658 10656 10655 10654 10652 10650 10649 10649 10648 10648 10647 10646 10646 10645 10645 10646 10645 10645 10646 10647 10648 10650 10652 10653 10653 10653 10654 10656 10657 10657 10658 10659 10660 10660 10663 10670 10671 10671 10673 10675 10677 10679 10683 10684 10683
10745 10743 10742 10740 10738 10736 10735 10734 10733 10731 10730 10729 10727 10724 10722 10720 10718 10716 10713 10711 10708 10706 10704 10701 10699 10696 10693 10691 10688 10686 10683 10681 10678 10676 10674 10672 10670 10668 10666 10665 10663 10662 10660 10658 10656 10654 10653 10651 10650 10649 10648 10647 10646 10646 10645 10644 10644 10644 10644 10643 10643 10643 10643 10643 10644 10647 10648 10649 10649 10650 10653 10654 10653 10653 10653 10651 10651 10660 10667 10666 10665 10668 10670 10671 10673 10677 10678 10678
10743 10741 10739 10738 10736 10734 10732 10731 10730 10728 10727 10726 10725 10723 10721 10718 10716 10715 10713 10710 10707 10705 10703 10701 10699 10696 10694 10691 10689 10686 10683 10681 10679 10676 10674 10672 10670 10668 10666 10664 10662 10660 10659 10657 10656 10654 10653 10651 10650 10648 10647 10645 10645 10644 10643 10643 10643 10643 10642 10641 10641 10640 10640 10639 10639 10641 10643 10643 10644 10645 10648 10649 10647 10647 10648 10644 10644 10653 10659 10659 10660 10662 10664 10666 10668 10671 10673 10673
10741 10739 10737 10735 10734 10732 10730 10729 10728 10726 10724 10723 10722 10721 10719 10717 10715 10713 10711 10709 10707 10704 10702 10700 10698 10695 10693 10690 10688 10685 10682 10680 10678 10676 10674 10672 10670 10668 10666 10663 10661 10659 10657 10657 10655 10653 10652 10651 10649 10648 10646 10644 10643 10642 10642 10641 10641 10641 10641 10639 10638 10637 10637 10636 10634 10634 10636 10637 10638 10640 10641 10643 10642 10643 10643 10637 10637 10645 10650 10652 10655 10656 10658 10661 10663 10665 10665 10666
10739 10737 10735 10733 10731 10730 10728 10726 10725 10724 10721 10720 10719 10718 10717 10715 10713 10712 10710 10708 10706 10703 10700 10699 10697 10695 10692 10690 10687 10685 10682 10679 10677 10675 10673 10671 10669 10666 10665 10663 10661 10659 10657 10655 10654 10652 10651 10649 10648 10647 10645 10644 10642 10641 10640 10639 10639 10638 10638 10637 10635 10634 10633 10632 10630 10629 10629 10630 10632 10632 10633 10636 10637 10637 10635 10631 10630 10635 10639 10645 10647 10648 10651 10652 10653 10657 10658 10660
10736 10735 10733 10731 10729 10727 10725 10724 10722 10721 10719 10717 10716 10715 10714 10712 10711 10709 10708 10706 10705 10702 10700 10697 10696 10694 10692 10689 10687 10685 10683 10680 10677 10674 10672 10671 10669 10666 10664 10662 10660 10658 10656 10654 10652 10651 10649 10648 10647 10646 10644 10643 10641 10640 10638 10637 10636 10635 10635 10634 10632 10631 10629 10628 10626 10624 10624 10624 10624 10624 10624 10627 10629 10628 10626 10625 10624 10626 10632 10638 10638 10637 10640 10640 10642 10648 10651 10651
10731 10731 10730 10728 10726 10724 10722 10721 10720 10718 10716 10715 10713 10712 10711 10710 10708 10707 10705 10704 10702 10700 10699 10696 10694 10692 10690 10688 10686 10684 10682 10680 10677 10674 10672 10669 10668 10665 10663 10661 10659 10657 10655 10653 10651 10649 10648 10646 10645 10643 10642 10641 10639 10638 10636 10635 10633 10632 10632 10631 10629 10628 10626 10625 10623 10620 10619 10619 10618 10617 10617 10618 10618 10617 10616 10617 10617 10618 10623 10627 10627 10629 10631 10631 10635 10641 10642 10641
10727 10727 10726 10725 10723 10721 10719 10717 10717 10715 10713 10712 10710 10709 10708 10706 10706 10705 10703 10701 10700 10698 10696 10694 10692 10690 10688 10686 10684 10682 10680 10679 10677 10674 10671 10668 10666 10664 10662 10660 10658 10656 10654 10652 10650 10648 10646 10644 10643 10641 10640 10638 10637 10636 10634 10632 10631 10629 10628 10627 10626 10625 10623 10621 10619 10617 10614 10613 10612 10611 10609 10608 10608 10606 10606 10609 10610 10609 10613 10616 10617 10620 10622 10624 10629 10633 10633 10634
10723 10722 10722 10721 10720 10719 10716 10714 10713 10712 10711 10709 10707 10706 10704 10703 10702 10702 10700 10698 10697 10695 10693 10691 10689 10687 10686 10684 10682 10680 10678 10676 10675 10673 10671 10668 10665 10662 10660 10658 10657 10655 10653 10651 10650 10648 10645 10643 10641 10639 10638 10636 10634 10633 10631 10630 10628 10626 10625 10624 10623 10621 10620 10617 10615 10612 10609 10607 10605 10604 10602 10601 10600 10597 10597 10602 10602 10601 10605 10608 10607 10609 10612 10615 10621 10623 10624 10627
10718 10718 10717 10717 10716 10715 10714 10711 10709 10709 10707 10706 10704 10702 10700 10699 10699 10698 10697 10696 10693 10692 10691 10688 10686 10685 10683 10682 10681 10679 10677 10675 10673 10671 10669 10668 10665 10661 10658 10656 10655 10653 10651 10650 10648 10647 10645 10642 10640 10638 10636 10634 10632 10630 10628 10627 10625 10623 10622 10620 10619 10617 10616 10613 10611 10608 10605 10602 10600 10599 10597 10595 10593 10591 10591 10595 10595 10594 10598 10600 10599 10601 10604 10606 10610 10614 10617 10619
10714 10713 10712 10712 10711 10711 10710 10708 10706 10705 10704 10702 10701 10699 10697 10695 10695 10694 10693 10693 10690 10688 10687 10686 10683 10682 10680 10679 10677 10676 10675 10673 10671 10669 10667 10665 10664 10662 10658 10655 10653 10651 10649 10648 10646 10644 10643 10641 10638 10636 10634 10632 10630 10628 10626 10624 10622 10620 10618 10616 10614 10613 10611 10609 10607 10605 10602 10599 10596 10594 10591 10589 10588 10587 10586 10588 10588 10588 10590 10590 10591 10595 10597 10598 10602 10607 10609 10611
10709 10708 10707 10707 10706 10706 10706 10704 10703 10702 10700 10699 10697 10695 10693 10691 10692 10691 10688 10688 10687 10685 10683 10682 10680 10678 10677 10675 10674 10672 10670 10669 10668 10666 10664 10662 10660 10658 10656 10653 10651 10649 10646 10645 10644 10642 10640 10638 10636 10634 10632 10630 10628 10625 10623 10621 10619 10617 10615 10612 10610 10609 10607 10605 10603 10601 10599 10597 10593 10590 10587 10585 10584 10583 10582 10582 10582 10583 10584 10583 10584 10588 10592 10593 10596 10601 10602 10603
10703 10702 10702 10701 10701 10700 10700 10699 10699 10698 10696 10695 10693 10691 10689 10687 10688 10688 10685 10683 10683 10682 10680 10678 10677 10675 10673 10672 10670 10669 10667 10665 10664 10662 10660 10659 10657 10655 10653 10650 10647 10646 10644 10642 10640 10639 10637 10635 10633 10631 10629 10627 10625 10623 10620 10618 10616 10614 10612 10610 10607 10605 10603 10601 10600 10598 10597 10594 10591 10588 10585 10582 10581 10579 10578 10578 10576 10577 10579 10579 10580 10584 10587 10587 10590 10595 10596 10596
10698 10697 10696 10696 10696 10695 10695 10694 10693 10693 10692 10691 10690 10687 10685 10684 10683 10683 10683 10678 10677 10678 10677 10674 10673 10671 10669 10667 10666 10664 10663 10661 10660 10658 10656 10655 10653 10651 10650 10648 10645 10642 10641 10639 10638 10635 10634 10633 10631 10628 10627 10625 10622 10620 10618 10616 10614 10611 10608 10606 10604 10602 10600 10598 10597 10595 10593 10591 10588 10586 10582 10579 10577 10575 10573 10574 10573 10572 10574 10574 10575 10577 10580 10581 10584 10587 10587 10588
10692 10692 10691 10690 10690 10690 10689 10689 10688 10688 10687 10687 10685 10682 10681 10681 10679 10678 10680 10676 10672 10673 10672 10670 10670 10668 10665 10663 10662 10660 10659 10657 10656 10654 10653 10651 10649 10647 10646 10645 10642 10640 10638 10636 10635 10633 10631 10630 10628 10626 10625 10623 10620 10618 10616 10614 10612 10609 10606 10603 10601 10599 10597 10595 10593 10592 10590 10588 10585 10582 10579 10576 10574 10571 10569 10569 10570 10569 10569 10570 10570 10571 10574 10576 10577 10578 10579 10580
10686 10687 10686 10684 10685 10685 10683 10683 10683 10682 10683 10682 10681 10679 10677 10677 10676 10674 10675 10672 10669 10669 10668 10665 10665 10664 10661 10659 10658 10657 10655 10653 10652 10650 10649 10648 10646 10643 10642 10640 10639 10638 10635 10633 10632 10631 10628 10626 10625 10623 10622 10621 10619 10617 10614 10612 10609 10607 10604 10601 10599 10596 10594 10592 10590 10588 10586 10584 10581 10579 10577 10574 10571 10568 10566 10565 10565 10565 10565 10565 10566 10566 10567 10569 10570 10570 10571 10572
10679 10681 10682 10678 10678 10680 10678 10677 10677 10677 10677 10677 10675 10674 10673 10673 10672 10669 10670 10669 10664 10664 10664 10661 10660 10660 10658 10655 10653 10653 10652 10649 10647 10646 10645 10644 10642 10640 10639 10636 10632 10632 10632 10629 10628 10627 10625 10623 10622 10621 10618 10617 10616 10614 10612 10610 10607 10604 10602 10600 10597 10594 10592 10589 10587 10585 10582 10580 10578 10575 10573 10571 10568 10565 10563 10562 10561 10561 10560 10561 10561 10561 10560 10562 10563 10563 10563 10565
10671 10673 10676 10673 10670 10674 10673 10672 10672 10671 10672 10671 10670 10669 10669 10669 10667 10664 10665 10666 10660 10658 10659 10658 10656 10654 10654 10652 10649 10648 10648 10646 10642 10641 10640 10640 10638 10636 10635 10633 10629 10627 10626 10626 10625 10624 10622 10620 10619 10618 10616 10614 10613 10611 10609 10608 10604 10601 10599 10597 10594 10591 10589 10587 10584 10581 10578 10576 10574 10572 10569 10568 10566 10563 10560 10558 10557 10557 10556 10556 10556 10555 10554 10555 10556 10557 10558 10559
10663 10664 10669 10667 10664 10667 10667 10666 10665 10665 10667 10665 10664 10664 10664 10664 10662 10659 10659 10660 10657 10654 10653 10653 10652 10649 10648 10647 10645 10643 10643 10642 10639 10636 10635 10634 10634 10632 10631 10630 10628 10624 10622 10621 10620 10620 10618 10616 10614 10614 10612 10611 10610 10608 10606 10604 10602 10599 10596 10593 10591 10588 10585 10583 10580 10578 10575 10573 10571 10569 10567 10565 10563 10560 10557 10555 10553 10552 10552 10551 10550 10549 10549 10549 10550 10551 10553 10554
10656 10657 10661 10660 10658 10661 10661 10660 10659 10659 10661 10660 10658 10658 10659 10659 10657 10654 10652 10653 10652 10649 10648 10648 10647 10645 10643 10642 10640 10638 10638 10637 10635 10632 10631 10629 10628 10628 10627 10626 10624 10621 10619 10617 10616 10615 10614 10613 10611 10609 10608 10607 10607 10605 10603 10601 10598 10596 10594 10591 10588 10585 10583 10581 10578 10576 10573 10571 10569 10566 10564 10561 10559 10557 10554 10551 10549 10548 10547 10546 10545 10543 10542 10542 10543 10544 10545 10547
10650 10650 10653 10653 10652 10654 10654 10653 10652 10653 10654 10653 10652 10652 10652 10653 10651 10648 10646 10646 10646 10645 10642 10642 10641 10639 10639 10637 10636 10634 10632 10632 10631 10628 10626 10625 10623 10622 10623 10622 10618 10616 10616 10614 10612 10611 10609 10608 10607 10605 10604 10602 10602 10602 10600 10597 10595 10593 10591 10589 10586 10583 10581 10578 10576 10574 10571 10569 10566 10564 10561 10558 10556 10554 10551 10548 10545 10543 10542 10541 10540 10538 10536 10536 10536 10536 10537 10539
10642 10642 10645 10646 10644 10646 10647 10645 10645 10647 10647 10646 10646 10646 10645 10646 10645 10643 10640 10639 10640 10639 10638 10637 10635 10634 10633 10632 10632 10629 10627 10627 10626 10623 10621 10620 10619 10617 10617 10618 10615 10611 10611 10610 10608 10606 10604 10603 10602 10601 10599 10598 10597 10597 10597 10594 10592 10590 10588 10585 10583 10580 10578 10575 10573 10571 10569 10567 10565 10562 10559 10556 10554 10551 10549 10546 10543 10539 10537 10535 10534 10532 10530 10529 10528 10528 10529 10531
10635 10634 10636 10639 10639 10637 10638 10638 10637 10638 10639 10638 10639 10639 10638 10638 10638 10637 10635 10633 10633 10633 10632 10631 10630 10628 10627 10626 10627 10625 10622 10621 10621 10619 10616 10615 10615 10611 10610 10613 10611 10607 10605 10604 10603 10603 10600 10598 10597 10595 10595 10593 10592 10592 10592 10590 10588 10586 10584 10582 10580 10577 10575 10572 10570 10568 10567 10564 10562 10560 10557 10553 10551 10548 10545 10542 10539 10536 10533 10531 10528 10526 10525 10523 10522 10522 10523 10524
10628 10626 10626 10631 10634 10629 10627 10629 10630 10630 10631 10631 10631 10631 10631 10631 10631 10629 10628 10627 10626 10626 10626 10626 10624 10622 10621 10619 10620 10620 10617 10616 10615 10614 10612 10610 10609 10606 10604 10606 10606 10603 10600 10598 10598 10598 10596 10594 10592 10591 10590 10588 10587 10586 10586 10586 10584 10583 10580 10578 10576 10574 10572 10569 10567 10565 10564 10562 10559 10557 10555 10551 10548 10545 10542 10539 10536 10533 10530 10526 10523 10521 10519 10517 10517 10516 10517 10518
10619 10619 10619 10622 10624 10623 10621 10619 10620 10622 10623 10622 10623 10623 10623 10623 10623 10621 10620 10621 10620 10619 10620 10620 10617 10616 10615 10613 10613 10614 10612 10609 10609 10609 10606 10604 10602 10599 10598 10599 10600 10598 10595 10593 10593 10593 10592 10590 10588 10587 10586 10585 10582 10581 10581 10581 10580 10579 10577 10574 10572 10571 10568 10566 10564 10561 10560 10559 10556 10554 10552 10549 10546 10543 10540 10537 10533 10529 10526 10523 10520 10518 10516 10514 10513 10512 10512 10513
10609 10609 10612 10613 10612 10613 10615 10613 10612 10612 10613 10612 10614 10615 10615 10615 10614 10612 10612 10613 10613 10612 10612 10613 10611 10608 10608 10606 10606 10608 10606 10603 10603 10601 10599 10598 10596 10593 10593 10593 10593 10592 10590 10588 10587 10587 10587 10586 10583 10582 10583 10581 10578 10576 10576 10576 10576 10575 10573 10570 10568 10567 10565 10562 10560 10558 10557 10555 10552 10550 10548 10546 10543 10540 10537 10534 10530 10525 10522 10520 10517 10515 10512 10511 10510 10509 10509 10509
10600 10600 10602 10604 10603 10602 10604 10605 10605 10604 10603 10603 10605 10606 10606 10606 10605 10604 10603 10604 10605 10604 10603 10605 10604 10601 10600 10600 10600 10601 10600 10597 10596 10594 10592 10592 10590 10588 10587 10586 10585 10585 10585 10583 10581 10580 10582 10581 10578 10577 10579 10577 10573 10571 10570 10570 10571 10570 10568 10566 10564 10563 10561 10559 10557 10555 10553 10551 10549 10547 10545 10542 10539 10537 10534 10531 10527 10523 10520 10517 10515 10512 10510 10508 10507 10506 10506 10506
10591 10591 10591 10592 10595 10595 10593 10593 10595 10595 10595 10596 10597 10597 10596 10597 10597 10596 10594 10595 10596 10595 10594 10596 10597 10593 10592 10593 10592 10593 10592 10589 10589 10588 10585 10584 10583 10582 10581 10579 10577 10577 10578 10578 10577 10575 10576 10576 10573 10572 10575 10573 10568 10566 10566 10565 10566 10565 10563 10561 10561 10559 10557 10555 10554 10552 10550 10548 10546 10544 10542 10539 10536 10533 10530 10528 10524 10521 10518 10515 10512 10510 10508 10507 10505 10504 10504 10503
10579 10581 10581 10582 10586 10586 10584 10583 10583 10584 10586 10587 10588 10588 10587 10587 10588 10587 10586 10586 10586 10586 10586 10586 10586 10586 10586 10585 10584 10584 10584 10582 10582 10580 10577 10576 10576 10575 10574 10573 10570 10569 10570 10571 10571 10570 10570 10570 10567 10566 10569 10567 10561 10561 10562 10561 10562 10561 10557 10556 10557 10555 10553 10552 10550 10548 10546 10544 10542 10540 10538 10536 10533 10530 10528 10525 10522 10519 10516 10514 10511 10508 10506 10505 10504 10503 10502 10501
10569 10568 10569 10571 10576 10577 10574 10572 10572 10574 10577 10577 10577 10578 10578 10578 10578 10576 10578 10578 10576 10575 10578 10577 10575 10577 10579 10578 10576 10576 10575 10574 10573 10572 10569 10568 10568 10568 10567 10566 10564 10563 10562 10562 10564 10564 10563 10563 10560 10558 10561 10560 10556 10555 10556 10557 10558 10555 10552 10552 10553 10551 10549 10548 10546 10545 10543 10541 10539 10537 10535 10533 10530 10527 10525 10523 10520 10517 10514 10511 10509 10506 10504 10503 10502 10501 10500 10499